This is the latest recevied weather packets stored in our database for station/object LA3SP-1. If no packets are shown the sender has not sent any weather packets the latest 1 day(s).
| Time | Temp. | Humidity | Pressure | Rain* | Wind** | Luminosity | Snow |
|---|---|---|---|---|---|---|---|
| 1778074487 | 6.11° C | 41% | 1007 hPa | 0 mm | 0 m/s | - | - |
| 1778073886 | 7.78° C | 40% | 1007.2 hPa | 0 mm | 2.68 m/s, 247° | - | - |
| 1778073284 | 8.33° C | 44% | 1007.1 hPa | 0 mm | 0 m/s | - | - |
| 1778072683 | 7.78° C | 45% | 1007.2 hPa | 0 mm | 1.34 m/s, 225° | - | - |
| 1778072081 | 6.11° C | 46% | 1007.1 hPa | 0 mm | 1.79 m/s, 135° | - | - |
| 1778070879 | 4.44° C | 44% | 1007.1 hPa | 0 mm | 1.79 m/s, 292° | - | - |
| 1778070278 | 5.56° C | 42% | 1007.2 hPa | 0 mm | 2.24 m/s, 270° | - | - |
| 1778069676 | 7.78° C | 42% | 1007.2 hPa | 0 mm | 0.45 m/s, 157° | - | - |
| 1778069075 | 7.22° C | 43% | 1007.1 hPa | 0 mm | 1.34 m/s, 180° | - | - |
| 1778067872 | 6.67° C | 44% | 1007.1 hPa | 0 mm | 0 m/s | - | - |
| 1778067271 | 6.67° C | 44% | 1007.1 hPa | 0 mm | 1.79 m/s, 157° | - | - |
| 1778066669 | 7.22° C | 42% | 1007.1 hPa | 0 mm | 3.13 m/s, 292° | - | - |
| 1778066068 | 6.67° C | 45% | 1007.1 hPa | 0 mm | 2.68 m/s, 157° | - | - |
| 1778065466 | 6.67° C | 45% | 1007.2 hPa | 0 mm | 3.13 m/s, 112° | - | - |
| 1778064865 | 7.22° C | 43% | 1007.2 hPa | 0 mm | 2.24 m/s, 157° | - | - |
| 1778064263 | 7.78° C | 45% | 1007 hPa | 0 mm | 0.45 m/s, 157° | - | - |
| 1778063061 | 7.22° C | 46% | 1006.9 hPa | 0 mm | 0 m/s | - | - |
| 1778062460 | 6.67° C | 48% | 1007 hPa | 0 mm | 2.68 m/s, 157° | - | - |
| 1778061858 | 5.56° C | 49% | 1007 hPa | 0 mm | 2.24 m/s, 157° | - | - |
| 1778061257 | 4.44° C | 48% | 1006.8 hPa | 0 mm | 0 m/s | - | - |
| 1778060655 | 4.44° C | 51% | 1007.1 hPa | 0 mm | 0.89 m/s, 157° | - | - |
| 1778060054 | 3.89° C | 54% | 1007 hPa | 0 mm | 0.45 m/s, 157° | - | - |
| 1778059082 | 0.56° C | 54% | 1007 hPa | 0 mm | 0 m/s | - | - |
| 1778058851 | 1.67° C | 56% | 1006.9 hPa | 0 mm | 2.24 m/s, 180° | - | - |
| 1778058250 | 0.56° C | 54% | 1007 hPa | 0 mm | 0 m/s | - | - |
* Rain latest 24 hours (hover to see other rain measurements)
** Current wind speed in m/s (hover to see current wind gust speed)